Total_Precipitation_Accumulation
2.04 2.19 2.13 2.06 2.03 2.04 2.11 2.21 2.27 2.15 1.85 1.38 1.22 1.21 1.25 1.34 1.70 1.59 1.47 1.46 1.31 1.22 1.13 1.11 1.17 1.29 1.48 1.76 2.00 2.19 2.27 2.35 2.41 2.56 2.69 2.65 2.72 2.77
1.84 1.96 2.09 2.08 2.07 2.05 2.12 2.15 2.14 2.14 2.00 1.57 1.29 1.18 1.28 1.23 1.45 1.23 1.34 1.53 1.31 1.14 1.07 1.03 1.04 1.13 1.25 1.42 1.49 1.47 1.46 1.49 1.65 1.96 2.14 2.10 2.07 2.19
1.62 1.66 1.82 1.94 2.05 2.05 2.07 2.07 2.12 2.08 1.95 1.71 1.36 1.21 1.35 1.39 1.43 1.24 1.20 1.25 1.18 1.15 1.08 1.00 0.96 1.02 1.04 1.16 1.29 1.20 1.11 1.08 1.14 1.38 1.62 1.71 1.66 1.63
1.48 1.54 1.59 1.60 1.71 1.83 1.96 1.93 2.00 2.04 2.00 1.89 1.59 1.38 1.39 1.48 1.66 1.61 1.46 1.34 1.32 1.42 1.37 1.21 1.09 1.07 1.10 1.13 1.24 1.19 1.00 0.94 0.92 0.99 1.22 1.48 1.60 1.58
1.25 1.33 1.36 1.45 1.60 1.60 1.68 1.76 1.83 1.87 1.98 1.94 1.83 1.72 1.58 1.51 1.60 1.58 1.61 1.72 1.64 1.62 1.65 1.48 1.32 1.22 1.17 1.19 1.23 1.23 1.10 0.99 0.95 0.95 1.01 1.17 1.36 1.48
1.12 1.19 1.24 1.30 1.41 1.47 1.49 1.63 1.75 1.83 1.86 1.84 1.78 1.72 1.67 1.63 1.63 1.63 1.70 1.84 1.92 1.76 1.69 1.59 1.56 1.45 1.33 1.26 1.23 1.24 1.25 1.14 1.08 1.09 1.06 1.08 1.23 1.34
1.05 1.07 1.11 1.11 1.17 1.23 1.23 1.41 1.56 1.73 1.80 1.83 1.74 1.64 1.58 1.59 1.58 1.60 1.69 1.91 1.97 1.97 1.92 1.76 1.63 1.44 1.37 1.32 1.26 1.28 1.30 1.24 1.18 1.19 1.20 1.16 1.22 1.32
0.95 0.99 1.07 1.11 1.07 1.03 1.01 1.08 1.21 1.33 1.52 1.65 1.69 1.61 1.53 1.51 1.62 1.75 1.75 1.89 2.02 1.92 1.80 1.87 1.76 1.64 1.47 1.33 1.39 1.40 1.35 1.30 1.23 1.21 1.25 1.26 1.24 1.32
0.78 0.92 1.02 1.06 1.11 1.11 1.00 0.99 0.98 1.01 1.14 1.32 1.45 1.46 1.46 1.49 1.60 1.73 1.82 1.89 1.80 1.85 1.81 1.90 1.83 1.68 1.46 1.42 1.51 1.40 1.36 1.33 1.35 1.34 1.31 1.28 1.27 1.33
0.69 0.81 0.96 1.07 1.13 1.16 1.10 1.14 1.08 0.95 0.94 1.01 1.19 1.30 1.34 1.52 1.71 1.88 2.01 2.01 1.89 1.84 1.81 1.87 1.75 1.59 1.41 1.37 1.50 1.38 1.29 1.25 1.25 1.33 1.36 1.29 1.28 1.35
0.70 0.76 0.93 1.01 1.18 1.24 1.16 1.23 1.20 0.98 0.91 1.00 1.05 1.15 1.29 1.46 1.68 1.90 1.99 2.01 2.00 1.87 1.67 1.57 1.49 1.52 1.50 1.39 1.37 1.37 1.26 1.17 1.11 1.12 1.15 1.16 1.19 1.34
0.75 0.77 1.00 1.07 1.18 1.16 1.09 1.27 1.36 1.18 0.92 0.91 0.99 1.13 1.24 1.41 1.67 1.84 2.08 2.10 1.94 1.86 1.65 1.49 1.49 1.59 1.75 1.56 1.34 1.24 1.17 1.21 1.20 1.18 1.16 1.18 1.28 1.27
0.64 0.69 0.70 0.88 0.95 1.00 1.07 1.13 1.29 1.18 1.02 1.11 1.21 1.23 1.33 1.40 1.54 1.69 1.92 2.09 2.04 1.82 1.63 1.62 1.59 1.56 1.59 1.52 1.38 1.24 1.13 1.11 1.13 1.17 1.22 1.27 1.33 1.31
0.53 0.59 0.66 0.81 0.86 0.90 0.93 0.97 1.07 1.10 1.11 1.26 1.29 1.19 1.23 1.31 1.39 1.54 1.68 1.79 1.69 1.63 1.52 1.47 1.46 1.37 1.34 1.27 1.21 1.21 1.20 1.13 1.10 1.13 1.15 1.33 1.39 1.40
0.53 0.63 0.67 0.76 0.72 0.73 0.82 0.86 0.93 1.11 1.25 1.22 1.21 1.14 1.12 1.18 1.22 1.39 1.54 1.66 1.62 1.47 1.35 1.25 1.25 1.24 1.24 1.19 1.08 1.03 1.08 1.10 1.04 1.05 1.11 1.15 1.18 1.28
0.56 0.64 0.68 0.72 0.69 0.69 0.76 0.84 0.93 1.11 1.29 1.16 1.04 1.03 1.05 1.15 1.24 1.27 1.33 1.39 1.53 1.53 1.38 1.28 1.26 1.29 1.26 1.13 1.09 1.02 0.94 0.97 1.00 1.05 1.09 1.11 1.12 1.15
0.60 0.66 0.77 0.85 0.83 0.84 0.90 0.93 0.97 0.99 1.07 1.02 1.02 1.09 1.16 1.17 1.24 1.30 1.31 1.29 1.29 1.31 1.32 1.30 1.29 1.36 1.38 1.29 1.19 1.05 1.00 0.93 0.95 1.08 1.20 1.23 1.17 1.17
0.75 0.74 0.84 0.99 1.04 1.05 1.08 1.09 1.11 1.07 1.09 1.08 1.11 1.15 1.16 1.15 1.17 1.27 1.38 1.41 1.32 1.18 1.12 1.14 1.21 1.35 1.44 1.44 1.29 1.13 1.06 1.04 1.04 1.06 1.10 1.15 1.13 1.13
0.76 0.77 0.97 1.03 1.02 1.03 1.09 1.14 1.08 0.98 1.01 1.06 1.05 1.06 1.07 1.07 1.09 1.13 1.22 1.28 1.29 1.20 1.12 1.12 1.20 1.32 1.36 1.26 1.12 1.00 1.03 1.06 1.14 1.14 1.07 1.01 0.98 0.97
0.84 0.98 1.15 1.20 1.14 1.09 1.06 1.03 0.94 0.88 0.87 0.90 0.96 0.99 1.04 1.08 1.09 1.08 1.09 1.11 1.14 1.14 1.18 1.17 1.20 1.27 1.34 1.28 1.13 0.97 0.97 1.06 1.11 1.16 1.12 1.10 1.11 1.15
0.89 1.02 1.14 1.22 1.16 1.04 0.96 0.93 0.90 0.87 0.86 0.87 0.93 0.99 1.01 1.05 1.04 1.04 1.03 1.08 1.10 1.07 1.07 1.03 1.05 1.27 1.35 1.43 1.37 1.11 1.00 1.13 1.25 1.23 1.21 1.25 1.25 1.16
0.88 0.90 0.91 0.91 0.86 0.84 0.88 0.87 0.87 0.90 0.89 0.88 0.93 0.96 1.02 1.09 1.09 1.05 1.04 1.03 1.04 1.02 0.98 0.96 1.05 1.26 1.37 1.44 1.33 1.14 1.01 1.05 1.26 1.41 1.38 1.35 1.31 1.25
0.86 0.84 0.85 0.86 0.85 0.83 0.85 0.86 0.87 0.88 0.90 0.92 0.98 1.01 1.02 1.05 1.11 1.12 1.08 1.07 1.09 1.07 1.08 1.09 1.11 1.24 1.35 1.38 1.34 1.23 1.13 1.09 1.12 1.16 1.18 1.28 1.26 1.17